I4GOS-3 Weather Reports


Display with metric or nautical units.
time (UTC)temp
F
wind
direction
speed
MPH
gust
MPH
rain 1hr
in
rain 24hr
in
rain mn
in
humidity
%
barometer
mb
20191022012059 64 231 0.0 0.0 0.00 0.00 0.00 90 1022.1
20191022011543 64 230 0.0 0.0 0.00 0.00 0.00 90 1022.0
20191022011043 64 231 0.0 0.0 0.00 0.00 0.00 90 1022.0
20191022010533 64 230 0.0 0.0 0.00 0.00 0.00 90 1022.1
20191022010031 64 230 0.0 0.0 0.00 0.00 0.00 90 1022.2
20191022005520 64 231 0.0 0.0 0.00 0.00 0.00 90 1022.3
20191022005001 64 230 0.0 0.0 0.00 0.00 0.00 90 1022.3
20191022004501 64 231 2.0 0.0 0.00 0.00 0.00 90 1022.4
20191022004003 64 235 3.0 0.0 0.00 0.00 0.00 90 1022.5
20191022003456 64 237 0.0 0.0 0.00 0.00 0.00 90 1022.4
20191022002942 64 237 0.0 0.0 0.00 0.00 0.00 90 1022.5
20191022002442 64 239 0.0 0.0 0.00 0.00 0.00 90 1022.5
20191022002032 64 249 3.0 0.0 0.00 0.00 0.00 89 1022.5
20191022001941 64 249 3.0 0.0 0.00 0.00 0.00 89 1022.5
20191022001441 64 257 1.0 0.0 0.00 0.00 0.00 89 1022.5
20191022000940 64 252 2.0 0.0 0.00 0.00 0.00 89 1022.5
20191022000436 64 249 1.0 0.0 0.00 0.00 0.00 89 1022.5
20191021235940 64 272 2.0 0.0 0.00 0.00 0.00 89 1022.5
20191021235436 64 256 1.0 0.0 0.00 0.00 0.00 88 1022.5
20191021234935 63 249 2.0 0.0 0.00 0.00 0.00 88 1022.4
20191021233935 63 259 0.0 0.0 0.00 0.00 0.00 88 1022.5
20191021233434 63 253 3.0 0.0 0.00 0.00 0.00 87 1022.6
20191021232935 63 257 0.0 0.0 0.00 0.00 0.00 87 1022.6
20191021232434 63 260 0.0 0.0 0.00 0.00 0.00 87 1022.6
20191021231932 63 276 3.0 0.0 0.00 0.00 0.00 87 1022.6
20191021231429 63 247 3.0 0.0 0.00 0.00 0.00 86 1022.6
20191021230930 63 261 0.0 0.0 0.00 0.00 0.00 86 1022.5
20191021225927 64 247 0.0 0.0 0.00 0.00 0.00 86 1022.6
20191021225426 64 247 0.0 0.0 0.00 0.00 0.00 86 1022.6
20191021224923 64 247 0.0 0.0 0.00 0.00 0.00 86 1022.6
20191021224420 64 248 3.0 0.0 0.00 0.00 0.00 86 1022.5
20191021223913 64 251 0.0 0.0 0.00 0.00 0.00 86 1022.4
20191021223406 64 251 0.0 0.0 0.00 0.00 0.00 86 1022.4
20191021222916 64 247 0.0 0.0 0.00 0.00 0.00 86 1022.4
20191021222358 64 251 1.0 0.0 0.00 0.00 0.00 86 1022.2
20191021221940 64 247 1.0 0.0 0.00 0.00 0.00 86 1022.3
20191021221854 64 247 1.0 0.0 0.00 0.00 0.00 86 1022.3
20191021221427 64 237 0.0 0.0 0.00 0.00 0.00 86 1022.2
20191021221350 64 237 0.0 0.0 0.00 0.00 0.00 86 1022.2
20191021220855 64 241 0.0 0.0 0.00 0.00 0.00 86 1022.2
20191021220349 64 248 0.0 0.0 0.00 0.00 0.00 86 1022.2
20191021215921 64 250 0.0 0.0 0.00 0.00 0.00 87 1022.2
20191021215845 64 250 0.0 0.0 0.00 0.00 0.00 87 1022.2
20191021215344 64 249 0.0 0.0 0.00 0.00 0.00 87 1022.1
20191021214844 64 254 3.0 0.0 0.00 0.00 0.00 87 1022.1
20191021214344 64 268 2.0 0.0 0.00 0.00 0.00 87 1022.1
20191021213840 64 262 1.0 0.0 0.00 0.00 0.00 87 1022.1
20191021213340 64 247 3.0 0.0 0.00 0.00 0.00 88 1022.0
20191021212915 64 251 1.0 0.0 0.00 0.00 0.00 88 1022.0
20191021212840 64 251 1.0 0.0 0.00 0.00 0.00 88 1022.0
20191021212334 65 255 4.0 0.0 0.00 0.00 0.00 88 1022.0
20191021211827 65 253 0.0 0.0 0.00 0.00 0.00 88 1022.0
20191021211325 66 224 3.0 0.0 0.00 0.00 0.00 88 1021.9
20191021210843 66 200 0.0 0.0 0.00 0.00 0.00 88 1021.8
20191021210756 66 200 0.0 0.0 0.00 0.00 0.00 88 1021.8
20191021210245 67 131 0.0 0.0 0.00 0.00 0.00 89 1021.9
20191021205729 67 128 0.0 0.0 0.00 0.00 0.00 89 1021.8
20191021205216 67 128 0.0 0.0 0.00 0.00 0.00 89 1021.7
20191021204700 68 128 0.0 0.0 0.00 0.00 0.00 89 1021.7
20191021204154 68 128 1.0 0.0 0.00 0.00 0.00 89 1021.7
20191021203646 68 139 2.0 0.0 0.00 0.00 0.00 89 1021.6
20191021203405 68 137 2.0 0.0 0.00 0.00 0.00 89 1021.6
20191021203148 68 137 2.0 0.0 0.00 0.00 0.00 89 1021.6
20191021202644 69 119 0.0 0.0 0.00 0.00 0.00 89 1021.7
20191021202356 69 119 0.0 0.0 0.00 0.00 0.00 88 1021.7
20191021202228 69 119 0.0 0.0 0.00 0.00 0.00 88 1021.7
20191021202143 69 119 0.0 0.0 0.00 0.00 0.00 88 1021.7
20191021201642 69 119 0.0 0.0 0.00 0.00 0.00 89 1021.8
20191021201138 69 120 0.0 0.0 0.00 0.00 0.00 88 1021.7
20191021200627 69 110 3.0 0.0 0.00 0.00 0.00 88 1021.7
20191021200117 69 101 3.0 0.0 0.00 0.00 0.00 88 1021.7
20191021195213 69 71 0.0 0.0 0.00 0.00 0.00 88 1021.8
20191021195052 69 71 0.0 0.0 0.00 0.00 0.00 88 1021.8
20191021194536 69 71 0.0 0.0 0.00 0.00 0.00 87 1021.7
20191021194055 69 104 0.0 0.0 0.00 0.00 0.00 87 1021.7
20191021194030 69 104 0.0 0.0 0.00 0.00 0.00 87 1021.7
20191021193529 69 105 0.0 0.0 0.00 0.00 0.00 87 1021.6
20191021193027 69 105 0.0 0.0 0.00 0.00 0.00 87 1021.6
20191021192517 69 107 0.0 0.0 0.00 0.00 0.00 87 1021.6
20191021192102 69 107 0.0 0.0 0.00 0.00 0.00 87 1021.5
20191021192001 69 107 0.0 0.0 0.00 0.00 0.00 87 1021.5
20191021191457 69 112 0.0 0.0 0.00 0.00 0.00 87 1021.5
20191021190939 69 114 3.0 0.0 0.00 0.00 0.00 87 1021.5
20191021190429 69 99 2.0 0.0 0.00 0.00 0.00 87 1021.4
20191021185928 69 104 4.0 0.0 0.00 0.00 0.00 87 1021.4
20191021185426 69 124 3.0 0.0 0.00 0.00 0.00 87 1021.3
20191021184916 69 112 4.0 0.0 0.00 0.00 0.00 87 1021.4
20191021184435 69 125 2.0 0.0 0.00 0.00 0.00 87 1021.4
20191021184358 69 125 2.0 0.0 0.00 0.00 0.00 87 1021.4
20191021183851 69 119 4.0 0.0 0.00 0.00 0.00 86 1021.3
20191021183350 70 112 5.0 0.0 0.00 0.00 0.00 86 1021.3
20191021182838 70 131 4.0 0.0 0.00 0.00 0.00 86 1021.3
20191021182334 70 120 4.0 0.0 0.00 0.00 0.00 86 1021.3
20191021182014 70 92 2.0 0.0 0.00 0.00 0.00 86 1021.3
20191021181830 70 92 2.0 0.0 0.00 0.00 0.00 86 1021.3
20191021181410 70 120 0.0 0.0 0.00 0.00 0.00 86 1021.3
20191021181330 70 120 0.0 0.0 0.00 0.00 0.00 86 1021.3
20191021180911 70 105 2.0 0.0 0.00 0.00 0.00 86 1021.3
20191021180815 70 105 2.0 0.0 0.00 0.00 0.00 86 1021.3
20191021180310 70 99 5.0 0.0 0.00 0.00 0.00 86 1021.3
20191021175810 70 102 3.0 0.0 0.00 0.00 0.00 86 1021.3
20191021175306 70 89 5.0 0.0 0.00 0.00 0.00 85 1021.3
20191021174805 70 102 4.0 0.0 0.00 0.00 0.00 85 1021.3
20191021174304 70 91 3.0 0.0 0.00 0.00 0.00 85 1021.2
20191021173754 70 118 2.0 0.0 0.00 0.00 0.00 85 1021.2
20191021173242 70 102 5.0 0.0 0.00 0.00 0.00 85 1021.2
20191021172748 70 94 3.0 0.0 0.00 0.00 0.00 84 1021.2
20191021172725 70 122 0.0 0.0 0.00 0.00 0.00 84 1021.2
20191021172239 70 94 3.0 0.0 0.00 0.00 0.00 84 1021.2
20191021172206 70 94 3.0 0.0 0.00 0.00 0.00 84 1021.2
20191021171706 70 91 0.0 0.0 0.00 0.00 0.00 84 1021.2
20191021171209 70 87 0.0 0.0 0.00 0.00 0.00 84 1021.2
20191021170846 70 90 0.0 0.0 0.00 0.00 0.00 84 1021.2
20191021170705 70 90 0.0 0.0 0.00 0.00 0.00 84 1021.2
20191021170144 71 108 4.0 0.0 0.00 0.00 0.00 84 1021.1
20191021165641 71 123 7.0 0.0 0.00 0.00 0.00 84 1021.1
20191021165140 71 106 0.0 0.0 0.00 0.00 0.00 83 1021.1
20191021164813 71 119 0.0 0.0 0.00 0.00 0.00 83 1021.0
20191021164332 71 124 5.0 0.0 0.00 0.00 0.00 82 1021.0
20191021164059 71 124 5.0 0.0 0.00 0.00 0.00 82 1021.0
20191021163626 71 95 7.0 0.0 0.00 0.00 0.00 82 1021.0
20191021163552 71 95 7.0 0.0 0.00 0.00 0.00 82 1021.0
20191021163052 71 110 4.0 0.0 0.00 0.00 0.00 81 1020.9
20191021162549 72 104 2.0 0.0 0.00 0.00 0.00 81 1020.8
20191021162040 72 77 5.0 0.0 0.00 0.00 0.00 80 1020.8
20191021161517 72 100 3.0 0.0 0.00 0.00 0.00 79 1020.9
20191021161102 72 126 4.0 0.0 0.00 0.00 0.00 79 1020.8
20191021161015 72 126 4.0 0.0 0.00 0.00 0.00 79 1020.8
20191021160513 72 103 0.0 0.0 0.00 0.00 0.00 78 1020.8
20191021160013 73 90 2.0 0.0 0.00 0.00 0.00 77 1020.7
20191021155555 73 81 0.0 0.0 0.00 0.00 0.00 77 1020.7
20191021155507 73 81 0.0 0.0 0.00 0.00 0.00 77 1020.7
20191021154950 73 109 4.0 0.0 0.00 0.00 0.00 76 1020.7
20191021154529 73 109 4.0 0.0 0.00 0.00 0.00 75 1020.6
20191021154446 73 109 4.0 0.0 0.00 0.00 0.00 75 1020.6
20191021153939 73 83 2.0 0.0 0.00 0.00 0.00 74 1020.5
20191021153511 74 75 8.0 0.0 0.00 0.00 0.00 73 1020.5
20191021153436 74 75 8.0 0.0 0.00 0.00 0.00 73 1020.5
20191021153013 74 90 3.0 0.0 0.00 0.00 0.00 72 1020.4
20191021152934 74 90 3.0 0.0 0.00 0.00 0.00 72 1020.4
20191021152526 74 106 9.0 0.0 0.00 0.00 0.00 71 1020.5
20191021152434 74 106 9.0 0.0 0.00 0.00 0.00 71 1020.5
20191021152034 74 89 6.0 0.0 0.00 0.00 0.00 70 1020.4
20191021151934 74 89 6.0 0.0 0.00 0.00 0.00 70 1020.4
20191021151504 74 83 6.0 0.0 0.00 0.00 0.00 69 1020.4
20191021151431 74 83 6.0 0.0 0.00 0.00 0.00 69 1020.4
20191021150930 75 75 2.0 0.0 0.00 0.00 0.00 69 1020.4
20191021150417 75 105 9.0 0.0 0.00 0.00 0.00 68 1020.5
20191021145910 75 44 5.0 0.0 0.00 0.00 0.00 67 1020.6
20191021145431 76 68 4.0 0.0 0.00 0.00 0.00 65 1020.6
20191021145354 76 68 4.0 0.0 0.00 0.00 0.00 65 1020.6
20191021144847 76 100 8.0 0.0 0.00 0.00 0.00 64 1020.7
20191021144346 76 69 7.0 0.0 0.00 0.00 0.00 62 1020.7
20191021143840 76 91 5.0 0.0 0.00 0.00 0.00 63 1020.8
20191021143423 76 99 5.0 0.0 0.00 0.00 0.00 64 1020.8
20191021143328 76 99 5.0 0.0 0.00 0.00 0.00 64 1020.8
20191021142824 76 77 9.0 0.0 0.00 0.00 0.00 64 1020.9
20191021142317 76 93 6.0 0.0 0.00 0.00 0.00 64 1020.9
20191021141817 75 92 7.0 0.0 0.00 0.00 0.00 65 1020.9
20191021141316 75 93 6.0 0.0 0.00 0.00 0.00 67 1020.9
20191021140815 75 91 6.0 0.0 0.00 0.00 0.00 68 1020.9
20191021140314 75 88 5.0 0.0 0.00 0.00 0.00 67 1020.9
20191021135814 75 89 8.0 0.0 0.00 0.00 0.00 67 1020.9
20191021135310 75 89 7.0 0.0 0.00 0.00 0.00 69 1020.9
20191021134849 75 104 7.0 0.0 0.00 0.00 0.00 68 1020.9
20191021134810 75 104 7.0 0.0 0.00 0.00 0.00 68 1020.9
20191021134309 75 41 5.0 0.0 0.00 0.00 0.00 69 1020.8
20191021133806 75 58 8.0 0.0 0.00 0.00 0.00 68 1020.9
20191021133301 75 112 5.0 0.0 0.00 0.00 0.00 68 1020.9
20191021132801 75 104 8.0 0.0 0.00 0.00 0.00 68 1020.8
20191021132251 75 114 10.0 0.0 0.00 0.00 0.00 66 1020.9
20191021131744 76 112 5.0 0.0 0.00 0.00 0.00 66 1020.9
20191021131242 76 93 11.0 0.0 0.00 0.00 0.00 66 1020.9
20191021130741 75 108 10.0 0.0 0.00 0.00 0.00 66 1020.9
20191021130239 76 90 10.0 0.0 0.00 0.00 0.00 67 1021.0
20191021125813 75 106 9.0 0.0 0.00 0.00 0.00 66 1020.9
20191021125739 75 106 9.0 0.0 0.00 0.00 0.00 66 1020.9
20191021125237 76 77 5.0 0.0 0.00 0.00 0.00 66 1020.9
20191021124233 76 90 10.0 0.0 0.00 0.00 0.00 65 1020.9
20191021123730 76 102 9.0 0.0 0.00 0.00 0.00 65 1020.9
20191021123210 77 83 8.0 0.0 0.00 0.00 0.00 64 1021.0
20191021122710 77 92 8.0 0.0 0.00 0.00 0.00 65 1020.9
20191021122255 77 106 5.0 0.0 0.00 0.00 0.00 65 1021.0
20191021122210 77 106 5.0 0.0 0.00 0.00 0.00 65 1021.0
20191021121710 76 71 3.0 0.0 0.00 0.00 0.00 68 1021.1
20191021120707 77 73 3.0 0.0 0.00 0.00 0.00 66 1021.1
20191021120247 78 75 9.0 0.0 0.00 0.00 0.00 63 1021.1
20191021120205 78 75 9.0 0.0 0.00 0.00 0.00 63 1021.1
20191021115743 79 70 2.0 0.0 0.00 0.00 0.00 61 1021.1
20191021115702 79 70 2.0 0.0 0.00 0.00 0.00 61 1021.1
20191021115243 78 82 6.0 0.0 0.00 0.00 0.00 60 1021.1
20191021115202 78 82 6.0 0.0 0.00 0.00 0.00 60 1021.1
20191021114700 80 63 10.0 0.0 0.00 0.00 0.00 57 1021.1
20191021114158 80 104 5.0 0.0 0.00 0.00 0.00 52 1021.2
20191021113658 80 90 5.0 0.0 0.00 0.00 0.00 53 1021.1
20191021113151 81 65 0.0 0.0 0.00 0.00 0.00 54 1021.2
20191021112808 81 108 7.0 0.0 0.00 0.00 0.00 52 1021.2
20191021112651 81 108 7.0 0.0 0.00 0.00 0.00 52 1021.2
20191021112153 81 122 3.0 0.0 0.00 0.00 0.00 53 1021.2
20191021111646 81 79 3.0 0.0 0.00 0.00 0.00 53 1021.2
20191021111146 80 118 0.0 0.0 0.00 0.00 0.00 52 1021.3
20191021110646 80 149 5.0 0.0 0.00 0.00 0.00 52 1021.3
20191021110114 80 112 8.0 0.0 0.00 0.00 0.00 53 1021.3
20191021105558 80 125 1.0 0.0 0.00 0.00 0.00 54 1021.4
20191021105129 79 84 7.0 0.0 0.00 0.00 0.00 57 1021.4
20191021105058 79 84 7.0 0.0 0.00 0.00 0.00 57 1021.4
20191021104637 79 69 3.0 0.0 0.00 0.00 0.00 56 1021.5
20191021104101 79 102 3.0 0.0 0.00 0.00 0.00 55 1021.5
20191021103547 79 114 7.0 0.0 0.00 0.00 0.00 55 1021.6
20191021103142 79 113 5.0 0.0 0.00 0.00 0.00 56 1021.6
20191021103053 79 113 5.0 0.0 0.00 0.00 0.00 56 1021.6
20191021102509 78 62 4.0 0.0 0.00 0.00 0.00 57 1021.6
20191021102009 78 120 5.0 0.0 0.00 0.00 0.00 58 1021.7
20191021101006 78 120 7.0 0.0 0.00 0.00 0.00 55 1021.7
20191021100503 78 134 6.0 0.0 0.00 0.00 0.00 55 1021.7
20191021100000 79 97 3.0 0.0 0.00 0.00 0.00 57 1021.7
20191021095453 79 98 3.0 0.0 0.00 0.00 0.00 58 1021.7
20191021095043 78 135 5.0 0.0 0.00 0.00 0.00 58 1021.7
20191021094951 78 135 5.0 0.0 0.00 0.00 0.00 58 1021.7
20191021094446 78 126 7.0 0.0 0.00 0.00 0.00 56 1021.7
20191021093946 78 152 7.0 0.0 0.00 0.00 0.00 56 1021.7
20191021093445 77 127 9.0 0.0 0.00 0.00 0.00 56 1021.7
20191021092936 77 145 6.0 0.0 0.00 0.00 0.00 57 1021.7
20191021092435 77 154 5.0 0.0 0.00 0.00 0.00 57 1021.6
20191021091935 77 143 6.0 0.0 0.00 0.00 0.00 58 1021.6
20191021091435 77 146 11.0 0.0 0.00 0.00 0.00 57 1021.6
20191021090934 77 155 9.0 0.0 0.00 0.00 0.00 57 1021.6
20191021090550 76 141 5.0 0.0 0.00 0.00 0.00 58 1021.6
20191021090434 76 141 5.0 0.0 0.00 0.00 0.00 58 1021.6
20191021085933 76 150 8.0 0.0 0.00 0.00 0.00 58 1021.5
20191021085432 76 117 7.0 0.0 0.00 0.00 0.00 59 1021.5
20191021084930 76 176 6.0 0.0 0.00 0.00 0.00 59 1021.5
20191021084425 76 165 6.0 0.0 0.00 0.00 0.00 59 1021.4
20191021083910 76 162 1.0 0.0 0.00 0.00 0.00 60 1021.4
20191021083410 76 150 9.0 0.0 0.00 0.00 0.00 60 1021.4
20191021082909 75 138 4.0 0.0 0.00 0.00 0.00 61 1021.3
20191021082408 75 142 8.0 0.0 0.00 0.00 0.00 61 1021.3
20191021081907 74 172 7.0 0.0 0.00 0.00 0.00 63 1021.1
20191021081405 74 137 13.0 0.0 0.00 0.00 0.00 64 1021.1
20191021080905 74 159 6.0 0.0 0.00 0.00 0.00 64 1021.0
20191021080403 74 145 10.0 0.0 0.00 0.00 0.00 66 1020.9
20191021075903 73 145 6.0 0.0 0.00 0.00 0.00 66 1020.9
20191021075402 73 141 6.0 0.0 0.00 0.00 0.00 67 1020.9
20191021074902 73 152 2.0 0.0 0.00 0.00 0.00 68 1020.9
20191021074402 72 129 8.0 0.0 0.00 0.00 0.00 69 1020.9
20191021073900 72 126 5.0 0.0 0.00 0.00 0.00 69 1020.9
20191021073440 72 135 4.0 0.0 0.00 0.00 0.00 69 1021.0
20191021073400 72 135 4.0 0.0 0.00 0.00 0.00 69 1021.0
20191021072859 72 134 4.0 0.0 0.00 0.00 0.00 69 1020.9
20191021072358 72 116 8.0 0.0 0.00 0.00 0.00 69 1020.9
20191021071852 71 147 8.0 0.0 0.00 0.00 0.00 69 1020.9
20191021071350 71 141 6.0 0.0 0.00 0.00 0.00 69 1020.9
20191021070846 71 149 8.0 0.0 0.00 0.00 0.00 71 1021.1
20191021070346 70 149 4.0 0.0 0.00 0.00 0.00 72 1021.1
20191021065843 70 176 0.0 0.0 0.00 0.00 0.00 73 1021.0
20191021065343 70 154 3.0 0.0 0.00 0.00 0.00 72 1020.8
20191021064839 70 152 4.0 0.0 0.00 0.00 0.00 72 1020.8
20191021064339 69 153 2.0 0.0 0.00 0.00 0.00 72 1020.7
20191021063826 70 147 0.0 0.0 0.00 0.00 0.00 72 1020.7
20191021063325 70 147 2.0 0.0 0.00 0.00 0.00 71 1020.6
20191021062825 70 139 4.0 0.0 0.00 0.00 0.00 71 1020.5
20191021062324 70 152 1.0 0.0 0.00 0.00 0.00 71 1020.3
20191021061824 70 161 4.0 0.0 0.00 0.00 0.00 71 1020.2
20191021061415 70 155 1.0 0.0 0.00 0.00 0.00 71 1020.2
20191021061322 70 155 1.0 0.0 0.00 0.00 0.00 71 1020.2
20191021060914 70 149 3.0 0.0 0.00 0.00 0.00 71 1020.2
20191021060822 70 149 3.0 0.0 0.00 0.00 0.00 71 1020.2
20191021060355 70 148 5.0 0.0 0.00 0.00 0.00 71 1020.0
20191021060321 70 148 5.0 0.0 0.00 0.00 0.00 71 1020.0
20191021055821 70 154 6.0 0.0 0.00 0.00 0.00 72 1019.9
20191021055321 69 151 6.0 0.0 0.00 0.00 0.00 72 1019.8
20191021054821 69 141 4.0 0.0 0.00 0.00 0.00 72 1019.6
20191021054402 69 126 2.0 0.0 0.00 0.00 0.00 72 1019.6
20191021054321 69 126 2.0 0.0 0.00 0.00 0.00 72 1019.6
20191021053820 69 148 6.0 0.0 0.00 0.00 0.00 72 1019.6
20191021053355 69 144 6.0 0.0 0.00 0.00 0.00 73 1019.5
20191021053320 69 144 6.0 0.0 0.00 0.00 0.00 73 1019.5
20191021052815 69 147 7.0 0.0 0.00 0.00 0.00 73 1019.6
20191021052312 69 149 4.0 0.0 0.00 0.00 0.00 73 1019.5
20191021051810 69 152 7.0 0.0 0.00 0.00 0.00 73 1019.5
20191021051310 69 147 6.0 0.0 0.00 0.00 0.00 73 1019.4
20191021050810 70 146 8.0 0.0 0.00 0.00 0.00 73 1019.4
20191021050309 70 137 6.0 0.0 0.00 0.00 0.00 73 1019.4
20191021045808 70 158 5.0 0.0 0.00 0.00 0.00 73 1019.5
20191021045308 69 159 5.0 0.0 0.00 0.00 0.00 74 1019.5
20191021044808 69 170 3.0 0.0 0.00 0.00 0.00 74 1019.5
20191021044308 69 164 3.0 0.0 0.00 0.00 0.00 75 1019.5
20191021043806 68 161 3.0 0.0 0.00 0.00 0.00 76 1019.4
20191021043306 68 152 0.0 0.0 0.00 0.00 0.00 76 1019.5
20191021042847 69 151 9.0 0.0 0.00 0.00 0.00 75 1019.4
20191021042806 69 151 9.0 0.0 0.00 0.00 0.00 75 1019.4
20191021042305 69 168 2.0 0.0 0.00 0.00 0.00 75 1019.5
20191021041805 69 147 7.0 0.0 0.00 0.00 0.00 75 1019.4
20191021041305 69 154 5.0 0.0 0.00 0.00 0.00 75 1019.4
20191021040805 69 142 6.0 0.0 0.00 0.00 0.00 75 1019.4
20191021040303 69 156 7.0 0.0 0.00 0.00 0.00 75 1019.4
20191021035803 69 153 10.0 0.0 0.00 0.00 0.00 76 1019.4
20191021035301 69 141 9.0 0.0 0.00 0.00 0.00 76 1019.4
20191021034834 69 149 7.0 0.0 0.00 0.00 0.00 75 1019.4
20191021034801 69 149 7.0 0.0 0.00 0.00 0.00 75 1019.4
20191021034300 69 149 11.0 0.0 0.00 0.00 0.00 75 1019.4
20191021033800 69 149 8.0 0.0 0.00 0.00 0.00 75 1019.4
20191021033259 69 132 7.0 0.0 0.00 0.00 0.00 75 1019.3
20191021032759 69 160 6.0 0.0 0.00 0.00 0.00 75 1019.4
20191021032258 69 149 5.0 0.0 0.00 0.00 0.00 75 1019.3
20191021031758 69 158 5.0 0.0 0.00 0.00 0.00 75 1019.2
20191021031255 69 161 6.0 0.0 0.00 0.00 0.00 75 1019.3
20191021030755 69 143 9.0 0.0 0.00 0.00 0.00 75 1019.3
20191021030254 69 149 8.0 0.0 0.00 0.00 0.00 75 1019.2
20191021025754 69 156 8.0 0.0 0.00 0.00 0.00 74 1019.3
20191021025254 69 152 9.0 0.0 0.00 0.00 0.00 74 1019.3
20191021024754 69 150 8.0 0.0 0.00 0.00 0.00 74 1019.3
20191021024240 69 143 5.0 0.0 0.00 0.00 0.00 74 1019.3
20191021023817 70 145 8.0 0.0 0.00 0.00 0.00 74 1019.3
20191021023738 70 145 8.0 0.0 0.00 0.00 0.00 74 1019.3
20191021023310 70 148 8.0 0.0 0.00 0.00 0.00 74 1019.3
20191021023237 70 148 8.0 0.0 0.00 0.00 0.00 74 1019.3
20191021022737 70 152 4.0 0.0 0.00 0.00 0.00 74 1019.3
20191021021730 70 149 10.0 0.0 0.00 0.00 0.00 73 1019.4
20191021021223 70 153 9.0 0.0 0.00 0.00 0.00 73 1019.4
20191021020714 70 161 8.0 0.0 0.00 0.00 0.00 73 1019.4
20191021020206 70 162 11.0 0.0 0.00 0.00 0.00 73 1019.5
20191021015705 70 138 6.0 0.0 0.00 0.00 0.00 73 1019.5
20191021015204 70 159 4.0 0.0 0.00 0.00 0.00 72 1019.5
20191021014202 70 175 3.0 0.0 0.00 0.00 0.00 73 1019.4
20191021013240 70 173 5.0 0.0 0.00 0.00 0.00 73 1019.3
20191021013157 70 173 5.0 0.0 0.00 0.00 0.00 73 1019.3
20191021012650 70 154 8.0 0.0 0.00 0.00 0.00 73 1019.4